sat.trackr.live / text

‹ back to catalog

STARLINK-2612

NORAD 48379 · 2021-038AC

PAYLOAD ACTIVE UNKNOWN

§ Identity

Operator
Country
US
Launch date
2021-05-04
Launch site
AFETR
Launch vehicle
Mass (kg)
RCS (m²)

Purposes: comms

External: N2YO · Heavens-Above · Gunter

§ Orbital elements

Epoch: 2026-09-13T02:21:57.107232Z

Period
94.01 min
Inclination
53.1615°
Eccentricity
0.0001485
Mean motion
15.31691638 rev/d
Perigee alt
469.7 km
Apogee alt
471.8 km
Semi-major
6,848.9 km
B*
6.0971e-6
RAAN
193.5915°
Arg perigee
89.2137°
Mean anomaly
270.9034°
Rev number
29,597

§ Raw data

STARLINK-26121 48379U 21038AC  26256.09857763 -.00000176  00000+0  60971-5 0  99932 48379  53.1615 193.5915 0001485  89.2137 270.9034 15.31691638295975

JSON: /api/v1/satellites/48379 · /tle

For live sub-satellite position, see the globe view (requires WebGL).

§ Visibility from observer

Set your observer location to see the next 7 days of passes ≥ 10°. The values pass through the URL so the page stays shareable.

No JS? Fill the form by hand. The geolocation button needs JavaScript.